Regional Weather Roundup
Issued by NWS

Home | Current Version | Previous Version | Text Only | Print | Product List | Glossary Off
Versions: 1 2 3 4 5 6 7 8 9 10 11 12 13 14 15 16 17 18 19 20 21 22 23 24 25 26 27 28 29 30 31 32 33 34 35 36 37 38 39 40 41 42 43 44 45 46 47 48 49 50

000
ASUS43 KOAX 250002
RWRNE

WEATHER ROUNDUP FOR NEBRASKA
NATIONAL WEATHER SERVICE OMAHA NE
700 PM CDT SUN MAY 24 2015

NOTES: SATELLITE DATA IS BEING USED TO AUGMENT CLOUD COVER ABOVE
       12000 FEET.
       "FAIR" INDICATES FEW OR NO CLOUDS BELOW 12,000 FEET WITH NO
       SIGNIFICANT WEATHER AND/OR OBSTRUCTIONS TO VISIBILITY.

  * THESE STATIONS DO NOT REPORT WEATHER SUCH AS RAIN...SNOW OR FOG.

NEZ001>004-019>022-054>056-250100-
NEBRASKA PANHANDLE

CITY           SKY/WX    TMP DP  RH WIND       PRES   REMARKS
SCOTTSBLUFF    CLOUDY    65  46  50 S7        29.77F
6HR MIN TEMP:  61; 6HR MAX TEMP:  69;

ALLIANCE       PTSUNNY   68  49  50 SE8       29.76F
6HR MIN TEMP:  61; 6HR MAX TEMP:  69;

CHADRON        MOSUNNY   60  54  80 NE12      29.79S
6HR MIN TEMP:  60; 6HR MAX TEMP:  67; 6HR PCP:  0.01;

SIDNEY         LGT RAIN  51  47  86 S21       29.84S FOG
6HR MIN TEMP:  51; 6HR MAX TEMP:  66; 6HR PCP:  0.06;

$$

NEZ057>060-069>072-079>082-250100-
SOUTHWEST NEBRASKA

CITY           SKY/WX    TMP DP  RH WIND       PRES   REMARKS
NORTH PLATTE   MOSUNNY   67  56  67 E18       29.78R
6HR MIN TEMP:  64; 6HR MAX TEMP:  70;

IMPERIAL       LGT RAIN  66  56  70 SE15      29.74F
6HR MIN TEMP:  65; 6HR MAX TEMP:  72; 6HR PCP: TRACE;

LEXINGTON      CLOUDY    65  59  83 E12       29.78F
MCCOOK         PTSUNNY   69  58  67 E14G25    29.76S
6HR MIN TEMP:  66; 6HR MAX TEMP:  72;

$$

NEZ005>010-023>029-035>040-094-250100-
NORTH CENTRAL NEBRASKA

CITY           SKY/WX    TMP DP  RH WIND       PRES   REMARKS
VALENTINE      PTSUNNY   64  57  78 E15       29.79F
6HR MIN TEMP:  59; 6HR MAX TEMP:  68; 6HR PCP:  0.02;

AINSWORTH      CLOUDY    64  61  91 E10       29.80F
BROKEN BOW     PTSUNNY   66  58  75 E12       29.78F
6HR MIN TEMP:  64; 6HR MAX TEMP:  69;

ORD            CLOUDY    65  57  75 CALM      29.78F
6HR MIN TEMP:  63; 6HR MAX TEMP:  67;

$$

NEZ041-046>049-061>064-073>077-083>087-250100-
SOUTH CENTRAL NEBRASKA

CITY           SKY/WX    TMP DP  RH WIND       PRES   REMARKS
GRAND ISLAND   CLOUDY    67  58  72 S6        29.80F
6HR MIN TEMP:  64; 6HR MAX TEMP:  67;

AURORA         CLOUDY    67  59  77 S8        29.80F
HASTINGS       CLOUDY    65  58  78 S6        29.80F
6HR MIN TEMP:  63; 6HR MAX TEMP:  66;

KEARNEY *      CLOUDY    63  57  82 SE5       29.79F
$$

NEZ011>018-030>034-042>045-250100-
NORTHEAST NEBRASKA

CITY           SKY/WX    TMP DP  RH WIND       PRES   REMARKS
NORFOLK        CLOUDY    65  59  81 CALM      29.78F
6HR MIN TEMP:  63; 6HR MAX TEMP:  66;

ALBION         CLOUDY    64  57  79 CALM      29.80F
BLAIR          CLOUDY    67  60  79 SW5       29.78F
COLUMBUS *     CLOUDY    66  57  72 W3        29.82F
FREMONT        CLOUDY    68  60  77 CALM      29.79F
TEKAMAH        CLOUDY    68  61  78 SW7       29.77F
6HR MIN TEMP:  66; 6HR MAX TEMP:  69;

$$

NEZ050>053-065>068-078-088>093-250100-
SOUTHEAST NEBRASKA

CITY           SKY/WX    TMP DP  RH WIND       PRES   REMARKS
LINCOLN        CLOUDY    68  61  78 SW7       29.79F
6HR MIN TEMP:  67; 6HR MAX TEMP:  71;

OMAHA EPPLEY   CLOUDY    70  61  73 SW5       29.78F
6HR MIN TEMP:  65; 6HR MAX TEMP:  70;

BEATRICE       CLOUDY    66  60  80 SW9       29.80F
FALLS CITY     CLOUDY    67  61  81 S12       29.80F
6HR MIN TEMP:  67; 6HR MAX TEMP:  71; 6HR PCP:  0.02;

NEBRASKA CITY  CLOUDY    67  60  76 SW10      29.80F
$$

NEZ044-045-051>053-067-250100-
OMAHA AREA

CITY           SKY/WX    TMP DP  RH WIND       PRES   REMARKS
OMAHA EPPLEY   CLOUDY    70  61  73 SW5       29.78F
6HR MIN TEMP:  65; 6HR MAX TEMP:  70;

BLAIR          CLOUDY    67  60  79 SW5       29.78F
FREMONT        CLOUDY    68  60  77 CALM      29.79F
OFFUTT AFB     CLOUDY    69  63  80 S8        29.77F
WAHOO          CLOUDY    69  61  77 SW5       29.78F
$$


USA.gov is the U.S. government's official web portal to all federal, state and local government web resources and services.